| time (UTC) | temp C | wind direction | speed KPH | gust KPH | rain 1hr cm | rain 24hr cm | rain mn cm | humidity % | barometer mb |
| 20260504050259 | 10 | 150 | 0.0 | 0.0 | 0.00 | 0.00 | 0.00 | 80 | 1006.3 |
| 20260504045756 | 10 | 150 | 0.0 | 0.0 | 0.00 | 0.00 | 0.00 | 80 | 1006.0 |
| 20260504045251 | 10 | 151 | 0.0 | 0.0 | 0.00 | 0.00 | 0.00 | 78 | 1006.3 |
| 20260504044748 | 10 | 151 | 0.0 | 0.0 | 0.00 | 0.00 | 0.00 | 78 | 1006.1 |
| 20260504044246 | 10 | 151 | 0.0 | 0.0 | 0.00 | 0.00 | 0.00 | 79 | 1006.2 |
| 20260504043743 | 10 | 151 | 0.0 | 0.0 | 0.00 | 0.00 | 0.00 | 79 | 1006.5 |
| 20260504043240 | 10 | 151 | 0.0 | 0.0 | 0.00 | 0.00 | 0.00 | 78 | 1006.4 |
| 20260504042738 | 10 | 151 | 0.0 | 0.0 | 0.00 | 0.00 | 0.00 | 81 | 1006.4 |
| 20260504042234 | 9 | 151 | 0.0 | 0.0 | 0.00 | 0.00 | 0.00 | 82 | 1006.4 |
| 20260504041730 | 9 | 151 | 0.0 | 0.0 | 0.00 | 0.00 | 0.00 | 82 | 1006.5 |
| 20260504041226 | 8 | 151 | 0.0 | 0.0 | 0.00 | 0.00 | 0.00 | 84 | 1006.6 |
| 20260504040722 | 8 | 151 | 0.0 | 0.0 | 0.00 | 0.00 | 0.00 | 83 | 1006.8 |
| 20260504040220 | 8 | 151 | 0.0 | 0.0 | 0.00 | 0.00 | 0.00 | 82 | 1006.6 |
| 20260504035716 | 9 | 151 | 0.0 | 0.0 | 0.00 | 0.00 | 0.00 | 82 | 1006.5 |
| 20260504035214 | 9 | 151 | 0.0 | 0.0 | 0.00 | 0.00 | 0.00 | 82 | 1006.8 |
| 20260504034711 | 9 | 151 | 0.0 | 0.0 | 0.00 | 0.00 | 0.00 | 81 | 1006.8 |
| 20260504034208 | 9 | 151 | 0.0 | 0.0 | 0.00 | 0.00 | 0.00 | 80 | 1006.6 |
| 20260504033705 | 10 | 151 | 0.0 | 0.0 | 0.00 | 0.00 | 0.00 | 80 | 1006.8 |
| 20260504033202 | 10 | 151 | 0.0 | 0.0 | 0.00 | 0.00 | 0.00 | 79 | 1006.8 |
| 20260504032659 | 10 | 151 | 0.0 | 0.0 | 0.00 | 0.00 | 0.00 | 78 | 1006.6 |
| 20260504032156 | 10 | 151 | 0.0 | 0.0 | 0.00 | 0.00 | 0.00 | 78 | 1006.9 |
| 20260504031653 | 10 | 151 | 0.0 | 0.0 | 0.00 | 0.00 | 0.00 | 77 | 1006.8 |
| 20260504031149 | 10 | 151 | 0.0 | 0.0 | 0.00 | 0.00 | 0.00 | 75 | 1006.9 |
| 20260504030646 | 11 | 151 | 0.0 | 0.0 | 0.00 | 0.00 | 0.00 | 75 | 1007.1 |
| 20260504030143 | 11 | 151 | 0.0 | 0.0 | 0.00 | 0.00 | 0.00 | 73 | 1006.8 |
| 20260504025640 | 11 | 151 | 0.0 | 0.0 | 0.00 | 0.00 | 0.00 | 75 | 1007.1 |
| 20260504025137 | 11 | 151 | 0.0 | 0.0 | 0.00 | 0.00 | 0.00 | 74 | 1006.9 |
| 20260504024634 | 11 | 151 | 0.0 | 0.0 | 0.00 | 0.00 | 0.00 | 76 | 1006.9 |
| 20260504024130 | 11 | 152 | 0.0 | 0.0 | 0.00 | 0.00 | 0.00 | 74 | 1006.7 |
| 20260504023627 | 11 | 152 | 0.0 | 0.0 | 0.00 | 0.00 | 0.00 | 73 | 1006.7 |
| 20260504023123 | 11 | 152 | 0.0 | 0.0 | 0.00 | 0.00 | 0.00 | 71 | 1006.8 |
| 20260504022620 | 12 | 153 | 0.0 | 0.0 | 0.00 | 0.00 | 0.00 | 71 | 1006.7 |
| 20260504022116 | 12 | 154 | 0.0 | 0.0 | 0.00 | 0.00 | 0.00 | 69 | 1006.7 |
| 20260504021614 | 12 | 159 | 0.0 | 0.0 | 0.00 | 0.00 | 0.00 | 68 | 1006.5 |
| 20260504021110 | 12 | 178 | 0.0 | 0.0 | 0.00 | 0.00 | 0.00 | 65 | 1006.5 |
| 20260504020607 | 13 | 146 | 0.0 | 0.0 | 0.00 | 0.00 | 0.00 | 67 | 1006.4 |
| 20260504020103 | 13 | 146 | 0.0 | 0.0 | 0.00 | 0.00 | 0.00 | 64 | 1006.3 |
| 20260504015600 | 13 | 145 | 0.0 | 1.6 | 0.00 | 0.00 | 0.00 | 63 | 1006.0 |
| 20260504015056 | 13 | 146 | 0.0 | 0.0 | 0.00 | 0.00 | 0.00 | 65 | 1006.2 |
| 20260504014552 | 13 | 145 | 0.0 | 0.0 | 0.00 | 0.00 | 0.00 | 63 | 1005.8 |
| 20260504014050 | 13 | 147 | 0.0 | 0.0 | 0.00 | 0.00 | 0.00 | 65 | 1006.2 |
| 20260504013547 | 13 | 147 | 0.0 | 0.0 | 0.00 | 0.00 | 0.00 | 66 | 1005.9 |
| 20260504013044 | 13 | 151 | 0.0 | 0.0 | 0.00 | 0.00 | 0.00 | 63 | 1006.1 |
| 20260504012541 | 12 | 163 | 0.0 | 0.0 | 0.00 | 0.00 | 0.00 | 67 | 1006.1 |
| 20260504012039 | 13 | 150 | 0.0 | 0.0 | 0.00 | 0.00 | 0.00 | 66 | 1006.0 |
| 20260504011536 | 13 | 150 | 0.0 | 1.6 | 0.00 | 0.00 | 0.00 | 68 | 1006.1 |
| 20260504011032 | 13 | 150 | 0.0 | 0.0 | 0.00 | 0.00 | 0.00 | 64 | 1006.0 |
| 20260504010527 | 13 | 150 | 0.0 | 0.0 | 0.00 | 0.00 | 0.00 | 62 | 1006.1 |
| 20260504010024 | 13 | 150 | 0.0 | 0.0 | 0.00 | 0.00 | 0.00 | 61 | 1006.2 |
| 20260504005521 | 15 | 150 | 0.0 | 0.0 | 0.00 | 0.00 | 0.00 | 62 | 1006.0 |
| 20260504005018 | 15 | 150 | 1.6 | 1.6 | 0.00 | 0.00 | 0.00 | 59 | 1005.7 |
| 20260504004516 | 15 | 149 | 1.6 | 1.6 | 0.00 | 0.00 | 0.00 | 57 | 1005.9 |
| 20260504004013 | 15 | 149 | 0.0 | 0.0 | 0.00 | 0.00 | 0.00 | 60 | 1006.1 |
| 20260504003509 | 15 | 149 | 0.0 | 0.0 | 0.00 | 0.00 | 0.00 | 60 | 1006.1 |
| 20260504003006 | 16 | 149 | 0.0 | 0.0 | 0.00 | 0.00 | 0.00 | 56 | 1005.9 |
| 20260504002503 | 17 | 149 | 1.6 | 1.6 | 0.00 | 0.00 | 0.00 | 52 | 1005.8 |
| 20260504002000 | 17 | 153 | 0.0 | 0.0 | 0.00 | 0.00 | 0.00 | 47 | 1005.8 |
| 20260504001457 | 18 | 170 | 0.0 | 1.6 | 0.00 | 0.00 | 0.00 | 46 | 1006.1 |
| 20260504000953 | 18 | 227 | 0.0 | 1.6 | 0.00 | 0.00 | 0.00 | 42 | 1006.2 |
| 20260504000451 | 18 | 201 | 1.6 | 3.2 | 0.00 | 0.00 | 0.00 | 41 | 1006.2 |
| 20260503235948 | 19 | 259 | 3.2 | 3.2 | 0.00 | 0.00 | 0.00 | 40 | 1006.2 |
| 20260503235446 | 19 | 214 | 1.6 | 1.6 | 0.00 | 0.00 | 0.00 | 39 | 1006.5 |
| 20260503234943 | 20 | 176 | 3.2 | 4.8 | 0.00 | 0.00 | 0.00 | 38 | 1006.5 |
| 20260503234440 | 20 | 211 | 4.8 | 4.8 | 0.00 | 0.00 | 0.00 | 38 | 1006.5 |
| 20260503233938 | 20 | 254 | 4.8 | 4.8 | 0.00 | 0.00 | 0.00 | 37 | 1006.4 |
| 20260503233434 | 20 | 324 | 1.6 | 3.2 | 0.00 | 0.00 | 0.00 | 37 | 1006.5 |
| 20260503232931 | 20 | 322 | 3.2 | 3.2 | 0.00 | 0.00 | 0.00 | 39 | 1006.4 |
| 20260503232428 | 20 | 224 | 4.8 | 4.8 | 0.00 | 0.00 | 0.00 | 38 | 1006.4 |
| 20260503231926 | 20 | 301 | 3.2 | 8.0 | 0.00 | 0.00 | 0.00 | 38 | 1006.4 |
| 20260503231423 | 20 | 336 | 8.0 | 11.3 | 0.00 | 0.00 | 0.00 | 38 | 1006.4 |
| 20260503230919 | 20 | 208 | 3.2 | 3.2 | 0.00 | 0.00 | 0.00 | 37 | 1006.5 |
| 20260503230416 | 20 | 203 | 3.2 | 4.8 | 0.00 | 0.00 | 0.00 | 38 | 1006.3 |
| 20260503225914 | 20 | 334 | 8.0 | 11.3 | 0.00 | 0.00 | 0.00 | 37 | 1006.5 |
| 20260503225410 | 20 | 275 | 3.2 | 3.2 | 0.00 | 0.00 | 0.00 | 38 | 1006.5 |
| 20260503224906 | 20 | 310 | 6.4 | 8.0 | 0.00 | 0.00 | 0.00 | 37 | 1006.7 |
| 20260503224403 | 20 | 334 | 8.0 | 9.7 | 0.00 | 0.00 | 0.00 | 37 | 1006.8 |
| 20260503223901 | 20 | 274 | 6.4 | 9.7 | 0.00 | 0.00 | 0.00 | 37 | 1007.1 |
| 20260503223359 | 20 | 244 | 4.8 | 4.8 | 0.00 | 0.00 | 0.00 | 36 | 1007.1 |
| 20260503222853 | 20 | 314 | 3.2 | 3.2 | 0.00 | 0.00 | 0.00 | 36 | 1007.3 |
| 20260503222353 | 20 | 222 | 1.6 | 3.2 | 0.00 | 0.00 | 0.00 | 36 | 1007.3 |
| 20260503221850 | 20 | 224 | 3.2 | 3.2 | 0.00 | 0.00 | 0.00 | 36 | 1007.2 |
| 20260503221349 | 20 | 255 | 6.4 | 8.0 | 0.00 | 0.00 | 0.00 | 36 | 1007.5 |
| 20260503220844 | 20 | 252 | 1.6 | 3.2 | 0.00 | 0.00 | 0.00 | 38 | 1007.4 |
| 20260503220341 | 20 | 273 | 6.4 | 11.3 | 0.00 | 0.00 | 0.00 | 34 | 1007.5 |
| 20260503215838 | 20 | 313 | 4.8 | 8.0 | 0.00 | 0.00 | 0.00 | 37 | 1007.4 |
| 20260503215336 | 20 | 301 | 8.0 | 11.3 | 0.00 | 0.00 | 0.00 | 35 | 1007.7 |
| 20260503214833 | 20 | 324 | 6.4 | 8.0 | 0.00 | 0.00 | 0.00 | 35 | 1007.5 |
| 20260503214330 | 21 | 268 | 4.8 | 8.0 | 0.00 | 0.00 | 0.00 | 35 | 1007.7 |
| 20260503213827 | 20 | 273 | 3.2 | 3.2 | 0.00 | 0.00 | 0.00 | 36 | 1007.7 |
| 20260503213325 | 20 | 249 | 6.4 | 9.7 | 0.00 | 0.00 | 0.00 | 36 | 1007.7 |
| 20260503212822 | 20 | 160 | 3.2 | 3.2 | 0.00 | 0.00 | 0.00 | 36 | 1007.8 |
| 20260503212320 | 20 | 238 | 3.2 | 3.2 | 0.00 | 0.00 | 0.00 | 35 | 1007.9 |
| 20260503211817 | 20 | 285 | 8.0 | 11.3 | 0.00 | 0.00 | 0.00 | 36 | 1008.0 |
| 20260503211313 | 20 | 329 | 3.2 | 3.2 | 0.00 | 0.00 | 0.00 | 35 | 1008.1 |
| 20260503210813 | 20 | 173 | 4.8 | 8.0 | 0.00 | 0.00 | 0.00 | 33 | 1007.9 |
| 20260503210311 | 20 | 226 | 1.6 | 3.2 | 0.00 | 0.00 | 0.00 | 34 | 1007.9 |
| 20260503205806 | 20 | 291 | 9.7 | 11.3 | 0.00 | 0.00 | 0.00 | 34 | 1008.1 |
| 20260503205304 | 20 | 311 | 8.0 | 9.7 | 0.00 | 0.00 | 0.00 | 37 | 1008.0 |
| 20260503204759 | 21 | 296 | 6.4 | 8.0 | 0.00 | 0.00 | 0.00 | 34 | 1008.4 |
| 20260503204257 | 20 | 342 | 1.6 | 3.2 | 0.00 | 0.00 | 0.00 | 37 | 1008.1 |
| 20260503203754 | 21 | 302 | 9.7 | 11.3 | 0.00 | 0.00 | 0.00 | 35 | 1008.4 |
| 20260503203251 | 20 | 194 | 0.0 | 0.0 | 0.00 | 0.00 | 0.00 | 35 | 1008.5 |
| 20260503202748 | 19 | 328 | 8.0 | 11.3 | 0.00 | 0.00 | 0.00 | 38 | 1008.7 |
| 20260503202246 | 20 | 341 | 12.9 | 20.9 | 0.00 | 0.00 | 0.00 | 37 | 1008.7 |
| 20260503201744 | 20 | 325 | 4.8 | 8.0 | 0.00 | 0.00 | 0.00 | 38 | 1008.8 |
| 20260503201241 | 20 | 289 | 4.8 | 4.8 | 0.00 | 0.00 | 0.00 | 39 | 1008.9 |
| 20260503200738 | 20 | 31 | 3.2 | 4.8 | 0.00 | 0.00 | 0.00 | 36 | 1008.9 |
| 20260503200234 | 20 | 270 | 8.0 | 9.7 | 0.00 | 0.00 | 0.00 | 37 | 1008.9 |
| 20260503195731 | 20 | 224 | 1.6 | 3.2 | 0.00 | 0.00 | 0.00 | 38 | 1009.3 |
| 20260503195228 | 20 | 226 | 3.2 | 3.2 | 0.00 | 0.00 | 0.00 | 38 | 1009.2 |
| 20260503194726 | 20 | 198 | 3.2 | 4.8 | 0.00 | 0.00 | 0.00 | 38 | 1009.3 |
| 20260503194221 | 20 | 144 | 1.6 | 1.6 | 0.00 | 0.00 | 0.00 | 40 | 1009.4 |
| 20260503193717 | 19 | 271 | 1.6 | 3.2 | 0.00 | 0.00 | 0.00 | 39 | 1009.5 |
| 20260503193214 | 19 | 308 | 4.8 | 4.8 | 0.00 | 0.00 | 0.00 | 39 | 1009.7 |
| 20260503192709 | 19 | 175 | 6.4 | 8.0 | 0.00 | 0.00 | 0.00 | 38 | 1009.5 |
| 20260503192205 | 19 | 195 | 1.6 | 3.2 | 0.00 | 0.00 | 0.00 | 43 | 1009.5 |
| 20260503191702 | 19 | 237 | 1.6 | 3.2 | 0.00 | 0.00 | 0.00 | 38 | 1009.7 |
| 20260503191159 | 19 | 139 | 4.8 | 8.0 | 0.00 | 0.00 | 0.00 | 37 | 1009.9 |
| 20260503190655 | 19 | 158 | 6.4 | 9.7 | 0.00 | 0.00 | 0.00 | 39 | 1009.8 |
| 20260503190152 | 19 | 99 | 1.6 | 3.2 | 0.00 | 0.00 | 0.00 | 38 | 1009.7 |
| 20260503185649 | 18 | 226 | 3.2 | 4.8 | 0.00 | 0.00 | 0.00 | 44 | 1010.2 |
| 20260503185144 | 18 | 99 | 1.6 | 1.6 | 0.00 | 0.00 | 0.00 | 38 | 1010.2 |
| 20260503184639 | 18 | 295 | 4.8 | 8.0 | 0.00 | 0.00 | 0.00 | 41 | 1010.3 |
| 20260503184136 | 18 | 0 | 6.4 | 8.0 | 0.00 | 0.00 | 0.00 | 39 | 1010.5 |
| 20260503183632 | 18 | 233 | 4.8 | 4.8 | 0.00 | 0.00 | 0.00 | 39 | 1010.2 |
| 20260503183130 | 17 | 109 | 0.0 | 1.6 | 0.00 | 0.00 | 0.00 | 43 | 1010.5 |
| 20260503182628 | 17 | 106 | 4.8 | 4.8 | 0.00 | 0.00 | 0.00 | 42 | 1010.3 |
| 20260503182126 | 18 | 181 | 4.8 | 4.8 | 0.00 | 0.00 | 0.00 | 44 | 1010.5 |
| 20260503181623 | 18 | 154 | 6.4 | 8.0 | 0.00 | 0.00 | 0.00 | 41 | 1010.5 |
| 20260503181120 | 18 | 110 | 3.2 | 4.8 | 0.00 | 0.00 | 0.00 | 42 | 1010.4 |
| 20260503180617 | 18 | 46 | 1.6 | 1.6 | 0.00 | 0.00 | 0.00 | 41 | 1010.5 |
| 20260503180115 | 17 | 39 | 4.8 | 9.7 | 0.00 | 0.00 | 0.00 | 39 | 1010.9 |
| 20260503175611 | 17 | 295 | 6.4 | 8.0 | 0.00 | 0.00 | 0.00 | 40 | 1010.9 |
| 20260503175108 | 17 | 234 | 4.8 | 4.8 | 0.00 | 0.00 | 0.00 | 41 | 1011.1 |
| 20260503174605 | 17 | 283 | 0.0 | 1.6 | 0.00 | 0.00 | 0.00 | 45 | 1011.0 |
| 20260503174102 | 17 | 358 | 4.8 | 4.8 | 0.00 | 0.00 | 0.00 | 40 | 1011.2 |
| 20260503173556 | 17 | 209 | 4.8 | 8.0 | 0.00 | 0.00 | 0.00 | 42 | 1011.1 |
| 20260503173053 | 17 | 132 | 0.0 | 1.6 | 0.00 | 0.00 | 0.00 | 44 | 1011.1 |
| 20260503172551 | 17 | 188 | 4.8 | 4.8 | 0.00 | 0.00 | 0.00 | 45 | 1011.3 |
| 20260503172048 | 16 | 311 | 4.8 | 4.8 | 0.00 | 0.00 | 0.00 | 40 | 1011.6 |
| 20260503171544 | 17 | 313 | 4.8 | 4.8 | 0.00 | 0.00 | 0.00 | 39 | 1011.4 |
| 20260503171042 | 17 | 162 | 4.8 | 4.8 | 0.00 | 0.00 | 0.00 | 42 | 1011.5 |
| 20260503170538 | 16 | 150 | 6.4 | 8.0 | 0.00 | 0.00 | 0.00 | 41 | 1011.6 |
| 20260503150930 | 14 | 309 | 4.8 | 4.8 | 0.00 | 0.00 | 0.00 | 44 | 1012.8 |
| 20260503150427 | 14 | 304 | 3.2 | 3.2 | 0.00 | 0.00 | 0.00 | 45 | 1012.7 |
| 20260503131320 | 9 | 203 | 1.6 | 1.6 | 0.00 | 0.00 | 0.00 | 89 | 1012.6 |
| 20260503130818 | 8 | 172 | 0.0 | 1.6 | 0.00 | 0.00 | 0.00 | 94 | 1012.5 |
| 20260503130315 | 8 | 191 | 0.0 | 1.6 | 0.00 | 0.00 | 0.00 | 94 | 1012.6 |
| 20260503110708 | 2 | 90 | 0.0 | 0.0 | 0.00 | 0.00 | 0.00 | 99 | 1011.5 |
| 20260503110206 | 2 | 90 | 0.0 | 0.0 | 0.00 | 0.00 | 0.00 | 99 | 1011.4 |
| 20260503100132 | 2 | 90 | 0.0 | 0.0 | 0.00 | 0.00 | 0.00 | 99 | 1011.1 |
| 20260503081521 | 2 | 91 | 0.0 | 0.0 | 0.00 | 0.00 | 0.00 | 98 | 1010.7 |
| 20260503081019 | 3 | 91 | 0.0 | 0.0 | 0.00 | 0.00 | 0.00 | 98 | 1010.7 |
| 20260503080515 | 3 | 91 | 0.0 | 0.0 | 0.00 | 0.00 | 0.00 | 98 | 1010.5 |
| 20260503072449 | 3 | 91 | 0.0 | 0.0 | 0.00 | 0.00 | 0.00 | 98 | 1010.6 |
| 20260503071945 | 3 | 91 | 0.0 | 0.0 | 0.00 | 0.00 | 0.00 | 98 | 1010.5 |
| 20260503071442 | 3 | 91 | 0.0 | 0.0 | 0.00 | 0.00 | 0.00 | 98 | 1010.5 |
| 20260503070939 | 3 | 91 | 0.0 | 0.0 | 0.00 | 0.00 | 0.00 | 98 | 1010.5 |
| 20260503070436 | 3 | 91 | 0.0 | 0.0 | 0.00 | 0.00 | 0.00 | 98 | 1010.6 |